Location: TAAA CAC
(31.8680°N, 109.5150°W)
Time: 23:55:47
(UTC-07:00)

Hubble Space Telescope - Visible Passes

Search period start: 22 February 2024 00:00
Search period end: 03 March 2024 00:00
Orbit: 516 x 519 km, 28.5° (Epoch: 22 February)

Date Brightness Start Highest point End Pass type
(mag) Time Alt. Az. Time Alt. Az. Time Alt. Az.
22 Feb 2.5 19:54:49 10° SW 19:57:03 22° S 19:57:03 22° S visible
23 Feb 1.9 19:37:18 10° SW 19:40:44 28° SSE 19:40:52 28° SSE visible
24 Feb 1.8 19:19:47 10° SW 19:23:20 31° SSE 19:24:39 25° SE visible
25 Feb 1.7 19:02:17 10° SW 19:05:56 34° SSE 19:08:22 18° ESE visible
25 Feb 3.5 20:42:29 10° WSW 20:43:17 15° WSW 20:43:17 15° WSW visible
26 Feb 1.6 18:44:47 10° SW 18:48:30 37° SSE 18:52:03 11° E visible
26 Feb 2.7 20:25:06 10° WSW 20:26:58 25° WSW 20:26:58 25° WSW visible
27 Feb 1.7 20:07:41 10° WSW 20:10:38 41° SW 20:10:38 41° SW visible
28 Feb 1.1 19:50:16 10° W 19:54:09 51° S 19:54:16 50° S visible
29 Feb 1.2 19:32:51 10° W 19:36:44 49° S 19:37:55 36° SE visible
01 Mar 1.3 19:15:25 10° W 19:19:16 47° S 19:21:34 22° ESE visible
01 Mar 3.9 20:56:27 10° WSW 20:56:28 10° WSW 20:56:28 10° WSW visible
02 Mar 1.5 18:57:59 10° W 19:01:49 44° S 19:05:14 12° ESE visible
02 Mar 3.4 20:39:09 10° WSW 20:40:09 15° WSW 20:40:09 15° WSW visible
